KUZGTU 1 (RS47S)

Last updated on Tue Oct 14 2025 00:03:09 GMT+0000 (Coordinated Universal Time)

1 57217U 23091AV 25286.64482402 .00017662 00000+0 75552-3 0 9998 2 57217 97.5435 344.3170 0011634 240.7771 119.2302 15.22826515126769
UTC large
Height (km)
Speed (km/s)
/
Latitude / Longitude
Inclination (degrees)
Orbital Period (minutes)
Azimuth
Elevation
Range (km)
Doppler Factor

Next 0 passes for location: London (51.5072 / 0.1276)

Sorry there are no passes over London.